Location: Helsinki
(60.1699°N, 24.9384°E)
Time: 11:57:20
(UTC+02:00)

Transit 2A Rocket - Pass Details

Date: 29 September 2023
Orbit: 593 x 903 km, 66.7° (Epoch: 06 December)

Event Time Altitude Azimuth Distance (km) Brightness Sun altitude
Rises 21:10:20 0° 303° (WNW) 3,063 9.9 -16.6°
Reaches altitude 10° 21:12:46 10° 307° (NW) 2,098 8.5 -16.9°
Maximum altitude 21:17:26 61° 28° (NNE) 724 4.8 -17.4°
Enters shadow 21:19:12 34° 95° (E) 1,031 5.2 -17.6°
Drops below altitude 10° 21:21:47 10° 110° (ESE) 1,963 - -17.9°
Sets 21:24:00 0° 114° (ESE) 2,846 - -18.1°
